Time,TemperatureF,DewpointF,PressureIn,WindDirection,WindDirectionDegrees,WindSpeedMPH,WindSpeedGustMPH,Humidity,HourlyPrecipIn,Conditions,Clouds,dailyrainin,SoftwareType,DateUTC
2013-06-13 00:02:00,64.2,60.3,30.00,North,0,0.0,3.0,87,0.00,,,0.00,meteohub,2013-06-13 07:02:00,
2013-06-13 00:07:00,64.2,60.3,30.00,North,0,1.0,3.0,87,0.00,,,0.00,meteohub,2013-06-13 07:07:00,
2013-06-13 00:12:00,64.2,60.3,30.00,North,0,0.0,2.0,87,0.00,,,0.00,meteohub,2013-06-13 07:12:00,
2013-06-13 00:17:00,64.2,60.3,30.00,North,0,0.0,2.0,87,0.00,,,0.00,meteohub,2013-06-13 07:17:00,
2013-06-13 00:22:00,64.0,60.1,30.00,North,0,0.0,2.0,87,0.00,,,0.00,meteohub,2013-06-13 07:22:00,
2013-06-13 00:27:00,64.2,60.3,30.00,North,0,0.0,1.0,87,0.00,,,0.00,meteohub,2013-06-13 07:27:00,
2013-06-13 00:32:00,63.9,59.9,30.00,North,0,0.0,1.0,87,0.00,,,0.00,meteohub,2013-06-13 07:32:00,
2013-06-13 00:37:00,63.9,59.9,30.00,North,0,0.0,0.0,87,0.00,,,0.00,meteohub,2013-06-13 07:37:00,
2013-06-13 00:42:00,63.7,60.1,29.99,North,0,0.0,0.0,88,0.00,,,0.00,meteohub,2013-06-13 07:42:00,
2013-06-13 00:47:00,63.5,59.9,29.99,North,0,0.0,0.0,88,0.00,,,0.00,meteohub,2013-06-13 07:47:00,
2013-06-13 00:52:00,63.5,60.3,29.99,North,0,0.0,1.0,89,0.00,,,0.00,meteohub,2013-06-13 07:52:00,
2013-06-13 00:57:00,63.7,60.4,30.00,North,0,0.0,1.0,89,0.00,,,0.00,meteohub,2013-06-13 07:57:00,
2013-06-13 01:02:00,63.7,60.4,29.99,North,0,0.0,1.0,89,0.00,,,0.00,meteohub,2013-06-13 08:02:00,
2013-06-13 01:07:00,63.9,60.6,30.00,North,0,0.0,0.0,89,0.00,,,0.00,meteohub,2013-06-13 08:07:00,
2013-06-13 01:12:00,63.9,60.3,30.00,North,0,0.0,0.0,88,0.00,,,0.00,meteohub,2013-06-13 08:12:00,
2013-06-13 01:17:00,63.9,60.3,29.99,North,0,0.0,0.0,88,0.00,,,0.00,meteohub,2013-06-13 08:17:00,
2013-06-13 01:22:00,64.0,60.4,29.99,North,0,0.0,0.0,88,0.00,,,0.00,meteohub,2013-06-13 08:22:00,
2013-06-13 01:27:00,64.0,60.4,29.99,North,0,0.0,0.0,88,0.00,,,0.00,meteohub,2013-06-13 08:27:00,
2013-06-13 01:32:00,64.0,60.4,29.99,North,0,0.0,0.0,88,0.00,,,0.00,meteohub,2013-06-13 08:32:00,
2013-06-13 01:37:00,64.2,60.6,29.99,North,0,0.0,0.0,88,0.00,,,0.00,meteohub,2013-06-13 08:37:00,
2013-06-13 01:42:00,64.2,60.6,29.99,North,0,0.0,0.0,88,0.00,,,0.00,meteohub,2013-06-13 08:42:00,
2013-06-13 01:47:00,64.2,60.3,29.99,North,0,0.0,0.0,87,0.00,,,0.00,meteohub,2013-06-13 08:47:00,
2013-06-13 01:52:00,64.4,60.1,30.00,North,0,0.0,0.0,86,0.00,,,0.00,meteohub,2013-06-13 08:52:00,
2013-06-13 01:57:00,64.4,60.1,29.99,North,0,0.0,0.0,86,0.00,,,0.00,meteohub,2013-06-13 08:57:00,
2013-06-13 02:02:00,64.4,60.1,29.99,North,0,0.0,0.0,86,0.00,,,0.00,meteohub,2013-06-13 09:02:00,
2013-06-13 02:07:00,64.4,59.7,29.99,North,0,4.0,0.0,85,0.00,,,0.00,meteohub,2013-06-13 09:07:00,
2013-06-13 02:12:00,64.4,59.7,29.99,North,0,2.0,4.0,85,0.00,,,0.00,meteohub,2013-06-13 09:12:00,
2013-06-13 02:17:00,64.4,59.7,29.99,North,0,0.0,4.0,85,0.00,,,0.00,meteohub,2013-06-13 09:17:00,
2013-06-13 02:22:00,64.4,59.7,29.99,North,0,4.0,4.0,85,0.00,,,0.00,meteohub,2013-06-13 09:22:00,
2013-06-13 02:27:00,64.4,59.7,29.99,North,0,2.0,4.0,85,0.00,,,0.00,meteohub,2013-06-13 09:27:00,
2013-06-13 02:32:00,64.4,59.7,29.99,North,0,2.0,4.0,85,0.00,,,0.00,meteohub,2013-06-13 09:32:00,
2013-06-13 02:37:00,64.4,59.7,29.99,North,0,1.0,4.0,85,0.00,,,0.00,meteohub,2013-06-13 09:37:00,
2013-06-13 02:42:00,64.4,59.7,29.99,North,0,1.0,3.0,85,0.00,,,0.00,meteohub,2013-06-13 09:42:00,
2013-06-13 02:47:00,64.4,60.1,29.99,North,0,0.0,3.0,86,0.00,,,0.00,meteohub,2013-06-13 09:47:00,
2013-06-13 02:52:00,64.4,60.1,29.99,North,0,0.0,3.0,86,0.00,,,0.00,meteohub,2013-06-13 09:52:00,
2013-06-13 02:57:00,64.4,60.1,29.99,North,0,0.0,3.0,86,0.00,,,0.00,meteohub,2013-06-13 09:57:00,
2013-06-13 03:02:00,64.2,59.9,29.99,North,0,0.0,0.0,86,0.00,,,0.00,meteohub,2013-06-13 10:02:00,
2013-06-13 03:06:00,64.2,59.9,29.98,North,0,0.0,0.0,86,0.00,,,0.00,meteohub,2013-06-13 10:06:00,
2013-06-13 03:11:00,64.2,59.9,29.98,North,0,0.0,0.0,86,0.00,,,0.00,meteohub,2013-06-13 10:11:00,
2013-06-13 03:16:00,64.2,59.9,29.99,North,0,3.0,0.0,86,0.00,,,0.00,meteohub,2013-06-13 10:16:00,
2013-06-13 03:21:00,64.2,59.9,29.98,North,0,2.0,4.0,86,0.00,,,0.00,meteohub,2013-06-13 10:21:00,
2013-06-13 03:26:00,64.2,59.5,29.98,North,0,4.0,4.0,85,0.00,,,0.00,meteohub,2013-06-13 10:26:00,
2013-06-13 03:31:00,64.2,59.5,29.98,North,0,3.0,4.0,85,0.00,,,0.00,meteohub,2013-06-13 10:31:00,
2013-06-13 03:36:00,64.2,59.5,29.98,North,0,2.0,4.0,85,0.00,,,0.00,meteohub,2013-06-13 10:36:00,
2013-06-13 03:42:00,64.2,59.5,29.98,North,0,0.0,4.0,85,0.00,,,0.00,meteohub,2013-06-13 10:42:00,
2013-06-13 03:47:00,64.4,59.7,29.98,North,0,2.0,3.0,85,0.00,,,0.00,meteohub,2013-06-13 10:47:00,
2013-06-13 03:52:00,64.2,59.9,29.98,North,0,3.0,4.0,86,0.00,,,0.00,meteohub,2013-06-13 10:52:00,
2013-06-13 03:57:00,64.2,59.9,29.98,North,0,1.0,4.0,86,0.00,,,0.00,meteohub,2013-06-13 10:57:00,
2013-06-13 04:02:00,64.2,59.9,29.98,North,0,0.0,4.0,86,0.00,,,0.00,meteohub,2013-06-13 11:02:00,
2013-06-13 04:07:00,64.2,59.9,29.99,North,0,0.0,3.0,86,0.00,,,0.00,meteohub,2013-06-13 11:07:00,
2013-06-13 04:12:00,64.0,59.7,29.98,North,0,1.0,2.0,86,0.00,,,0.00,meteohub,2013-06-13 11:12:00,
2013-06-13 04:17:00,64.0,59.7,29.99,North,0,1.0,2.0,86,0.00,,,0.00,meteohub,2013-06-13 11:17:00,
2013-06-13 04:22:00,64.0,59.7,29.99,North,0,3.0,3.0,86,0.00,,,0.00,meteohub,2013-06-13 11:22:00,
2013-06-13 04:27:00,64.0,59.7,29.98,North,0,2.0,3.0,86,0.00,,,0.00,meteohub,2013-06-13 11:27:00,
2013-06-13 04:32:00,64.0,59.4,29.99,North,0,0.0,3.0,85,0.00,,,0.00,meteohub,2013-06-13 11:32:00,
2013-06-13 04:37:00,64.0,59.4,29.99,North,0,2.0,3.0,85,0.00,,,0.00,meteohub,2013-06-13 11:37:00,
2013-06-13 04:42:00,64.2,59.5,29.99,North,0,3.0,3.0,85,0.00,,,0.00,meteohub,2013-06-13 11:42:00,
2013-06-13 04:47:00,64.2,59.5,29.99,North,0,1.0,3.0,85,0.00,,,0.00,meteohub,2013-06-13 11:47:00,
2013-06-13 04:52:00,64.2,59.5,29.99,North,0,1.0,3.0,85,0.00,,,0.00,meteohub,2013-06-13 11:52:00,
2013-06-13 04:57:00,64.2,59.5,29.99,North,0,1.0,3.0,85,0.00,,,0.00,meteohub,2013-06-13 11:57:00,
2013-06-13 05:02:00,64.2,59.5,29.99,North,0,1.0,2.0,85,0.00,,,0.00,meteohub,2013-06-13 12:02:00,
2013-06-13 05:07:00,64.2,59.5,29.99,North,0,1.0,2.0,85,0.00,,,0.00,meteohub,2013-06-13 12:07:00,
2013-06-13 05:12:00,64.2,59.5,29.99,North,0,2.0,2.0,85,0.00,,,0.00,meteohub,2013-06-13 12:12:00,
2013-06-13 05:17:00,64.2,59.5,29.99,North,0,1.0,2.0,85,0.00,,,0.00,meteohub,2013-06-13 12:17:00,
2013-06-13 05:22:00,64.2,59.5,30.00,North,0,3.0,3.0,85,0.00,,,0.00,meteohub,2013-06-13 12:22:00,
2013-06-13 05:27:00,64.4,59.5,29.99,North,0,2.0,3.0,84,0.00,,,0.00,meteohub,2013-06-13 12:27:00,
2013-06-13 05:32:00,64.4,59.5,29.99,North,0,1.0,4.0,84,0.00,,,0.00,meteohub,2013-06-13 12:32:00,
2013-06-13 05:37:00,64.4,59.5,30.00,North,0,2.0,4.0,84,0.00,,,0.00,meteohub,2013-06-13 12:37:00,
2013-06-13 05:42:00,64.4,59.5,29.99,North,0,0.0,4.0,84,0.00,,,0.00,meteohub,2013-06-13 12:42:00,
2013-06-13 05:47:00,64.4,59.5,30.00,West,270,2.0,3.0,84,0.00,,,0.00,meteohub,2013-06-13 12:47:00,
2013-06-13 05:52:00,64.4,59.5,30.00,West,270,1.0,3.0,84,0.00,,,0.00,meteohub,2013-06-13 12:52:00,
2013-06-13 05:57:00,64.4,59.5,29.99,West,270,0.0,3.0,84,0.00,,,0.00,meteohub,2013-06-13 12:57:00,
2013-06-13 06:02:00,64.4,59.5,30.00,West,270,2.0,3.0,84,0.00,,,0.00,meteohub,2013-06-13 13:02:00,
2013-06-13 06:07:00,64.4,59.5,30.00,West,270,2.0,3.0,84,0.00,,,0.00,meteohub,2013-06-13 13:07:00,
2013-06-13 06:12:00,64.4,59.2,30.00,West,270,3.0,3.0,83,0.00,,,0.00,meteohub,2013-06-13 13:12:00,
2013-06-13 06:17:00,64.4,59.5,30.00,West,270,2.0,4.0,84,0.00,,,0.00,meteohub,2013-06-13 13:17:00,
2013-06-13 06:22:00,64.6,59.7,30.00,West,270,2.0,4.0,84,0.00,,,0.00,meteohub,2013-06-13 13:22:00,
2013-06-13 06:27:00,64.6,59.4,30.00,West,270,4.0,4.0,83,0.00,,,0.00,meteohub,2013-06-13 13:27:00,
2013-06-13 06:32:00,64.8,59.5,30.01,West,270,2.0,4.0,83,0.00,,,0.00,meteohub,2013-06-13 13:32:00,
2013-06-13 06:37:00,64.8,59.5,30.01,West,270,0.0,4.0,83,0.00,,,0.00,meteohub,2013-06-13 13:37:00,
2013-06-13 06:42:00,64.8,59.2,30.01,SE,135,2.0,4.0,82,0.00,,,0.00,meteohub,2013-06-13 13:42:00,
2013-06-13 06:47:00,64.9,59.7,30.01,SE,135,2.0,4.0,83,0.00,,,0.00,meteohub,2013-06-13 13:47:00,
2013-06-13 06:52:00,64.9,59.4,30.01,SE,135,2.0,4.0,82,0.00,,,0.00,meteohub,2013-06-13 13:52:00,
2013-06-13 06:57:00,65.1,59.5,30.01,SE,135,1.0,3.0,82,0.00,,,0.00,meteohub,2013-06-13 13:57:00,
2013-06-13 07:02:00,65.3,59.7,30.01,East,90,3.0,3.0,82,0.00,,,0.00,meteohub,2013-06-13 14:02:00,
2013-06-13 07:06:00,65.5,59.9,30.01,East,90,1.0,3.0,82,0.00,,,0.00,meteohub,2013-06-13 14:06:00,
2013-06-13 07:11:00,65.8,59.9,30.01,East,90,0.0,3.0,81,0.00,,,0.00,meteohub,2013-06-13 14:11:00,
2013-06-13 07:16:00,66.0,60.1,30.01,East,90,0.0,3.0,81,0.00,,,0.00,meteohub,2013-06-13 14:16:00,
2013-06-13 07:21:00,66.2,59.9,30.01,East,90,3.0,3.0,80,0.00,,,0.00,meteohub,2013-06-13 14:21:00,
2013-06-13 07:27:00,66.4,59.7,30.01,East,90,3.0,3.0,79,0.00,,,0.00,meteohub,2013-06-13 14:27:00,
2013-06-13 07:32:00,66.6,59.9,30.01,East,90,2.0,6.0,79,0.00,,,0.00,meteohub,2013-06-13 14:32:00,
2013-06-13 07:37:00,66.6,59.9,30.01,East,90,2.0,6.0,79,0.00,,,0.00,meteohub,2013-06-13 14:37:00,
2013-06-13 07:42:00,66.6,59.5,30.01,East,90,1.0,6.0,78,0.00,,,0.00,meteohub,2013-06-13 14:42:00,
2013-06-13 07:47:00,67.1,60.4,30.02,East,90,2.0,4.0,79,0.00,,,0.00,meteohub,2013-06-13 14:47:00,
2013-06-13 07:52:00,67.3,59.9,30.02,East,90,5.0,5.0,77,0.00,,,0.00,meteohub,2013-06-13 14:52:00,
2013-06-13 07:57:00,67.1,60.1,30.02,East,90,5.0,5.0,78,0.00,,,0.00,meteohub,2013-06-13 14:57:00,
2013-06-13 08:02:00,67.3,60.3,30.02,East,90,2.0,5.0,78,0.00,,,0.00,meteohub,2013-06-13 15:02:00,
2013-06-13 08:07:00,68.0,60.4,30.02,East,90,2.0,5.0,77,0.00,,,0.00,meteohub,2013-06-13 15:07:00,
2013-06-13 08:12:00,68.4,60.1,30.02,East,90,2.0,5.0,75,0.00,,,0.00,meteohub,2013-06-13 15:12:00,
2013-06-13 08:17:00,68.4,60.1,30.02,ENE,68,1.0,3.0,75,0.00,,,0.00,meteohub,2013-06-13 15:17:00,
2013-06-13 08:22:00,68.5,60.3,30.02,NE,45,4.0,4.0,75,0.00,,,0.00,meteohub,2013-06-13 15:22:00,
2013-06-13 08:27:00,68.7,60.4,30.02,NE,45,2.0,4.0,75,0.00,,,0.00,meteohub,2013-06-13 15:27:00,
2013-06-13 08:32:00,69.1,60.4,30.02,NE,45,2.0,4.0,74,0.00,,,0.00,meteohub,2013-06-13 15:32:00,
2013-06-13 08:37:00,70.0,60.6,30.02,NE,45,2.0,4.0,72,0.00,,,0.00,meteohub,2013-06-13 15:37:00,
2013-06-13 08:42:00,70.0,59.7,30.02,NE,45,3.0,4.0,70,0.00,,,0.00,meteohub,2013-06-13 15:42:00,
2013-06-13 08:47:00,69.6,59.7,30.02,NE,45,2.0,3.0,71,0.00,,,0.00,meteohub,2013-06-13 15:47:00,
2013-06-13 08:52:00,69.3,59.5,30.02,North,0,2.0,3.0,71,0.00,,,0.00,meteohub,2013-06-13 15:52:00,
2013-06-13 08:57:00,69.4,59.5,30.02,WNW,293,4.0,4.0,71,0.00,,,0.00,meteohub,2013-06-13 15:57:00,
2013-06-13 09:02:00,68.9,59.5,30.02,NW,315,4.0,4.0,72,0.00,,,0.00,meteohub,2013-06-13 16:02:00,
2013-06-13 09:07:00,68.5,59.5,30.03,NW,315,2.0,4.0,73,0.00,,,0.00,meteohub,2013-06-13 16:07:00,
2013-06-13 09:12:00,69.3,60.6,30.02,West,270,2.0,4.0,74,0.00,,,0.00,meteohub,2013-06-13 16:12:00,
2013-06-13 09:17:00,70.0,59.7,30.03,NW,315,4.0,4.0,70,0.00,,,0.00,meteohub,2013-06-13 16:17:00,
2013-06-13 09:22:00,70.0,60.1,30.03,NW,315,3.0,4.0,71,0.00,,,0.00,meteohub,2013-06-13 16:22:00,
2013-06-13 09:27:00,69.6,59.7,30.03,West,270,8.0,8.0,71,0.00,,,0.00,meteohub,2013-06-13 16:27:00,
2013-06-13 09:32:00,68.9,59.9,30.03,WNW,293,10.0,10.0,73,0.00,,,0.00,meteohub,2013-06-13 16:32:00,
2013-06-13 09:37:00,68.7,60.1,30.03,West,270,4.0,10.0,74,0.00,,,0.00,meteohub,2013-06-13 16:37:00,
2013-06-13 09:42:00,69.3,60.3,30.03,NW,315,8.0,10.0,73,0.00,,,0.00,meteohub,2013-06-13 16:42:00,
2013-06-13 09:47:00,69.1,59.7,30.03,NW,315,7.0,10.0,72,0.00,,,0.00,meteohub,2013-06-13 16:47:00,
2013-06-13 09:52:00,69.4,60.4,30.03,North,0,4.0,9.0,73,0.00,,,0.00,meteohub,2013-06-13 16:52:00,
2013-06-13 09:57:00,70.2,60.6,30.03,NW,315,6.0,9.0,72,0.00,,,0.00,meteohub,2013-06-13 16:57:00,
2013-06-13 10:02:00,70.5,60.6,30.03,NW,315,7.0,8.0,71,0.00,,,0.00,meteohub,2013-06-13 17:02:00,
2013-06-13 10:07:00,70.7,60.4,30.03,NW,315,7.0,8.0,70,0.00,,,0.00,meteohub,2013-06-13 17:07:00,
2013-06-13 10:12:00,70.9,60.3,30.03,West,270,5.0,8.0,69,0.00,,,0.00,meteohub,2013-06-13 17:12:00,
2013-06-13 10:17:00,72.0,60.8,30.03,WNW,293,4.0,8.0,68,0.00,,,0.00,meteohub,2013-06-13 17:17:00,
2013-06-13 10:22:00,71.4,59.9,30.03,NW,315,6.0,9.0,67,0.00,,,0.00,meteohub,2013-06-13 17:22:00,
2013-06-13 10:27:00,70.7,60.8,30.03,NW,315,5.0,9.0,71,0.00,,,0.00,meteohub,2013-06-13 17:27:00,
2013-06-13 10:32:00,70.9,60.6,30.03,West,270,4.0,9.0,70,0.00,,,0.00,meteohub,2013-06-13 17:32:00,
2013-06-13 10:37:00,71.2,60.6,30.03,NW,315,7.0,9.0,69,0.00,,,0.00,meteohub,2013-06-13 17:37:00,
2013-06-13 10:42:00,70.9,60.3,30.03,West,270,8.0,9.0,69,0.00,,,0.00,meteohub,2013-06-13 17:42:00,
2013-06-13 10:47:00,70.3,60.1,30.03,NW,315,4.0,9.0,70,0.00,,,0.00,meteohub,2013-06-13 17:47:00,
2013-06-13 10:52:00,71.1,60.4,30.03,NW,315,9.0,11.0,69,0.00,,,0.00,meteohub,2013-06-13 17:52:00,
2013-06-13 10:57:00,71.1,59.9,30.03,NW,315,8.0,11.0,68,0.00,,,0.00,meteohub,2013-06-13 17:57:00,
2013-06-13 11:02:00,72.1,60.6,30.03,North,0,4.0,10.0,67,0.00,,,0.00,meteohub,2013-06-13 18:02:00,
2013-06-13 11:07:00,73.2,60.8,30.03,NW,315,4.0,10.0,65,0.00,,,0.00,meteohub,2013-06-13 18:07:00,
2013-06-13 11:12:00,73.6,60.3,30.03,NW,315,8.0,9.0,63,0.00,,,0.00,meteohub,2013-06-13 18:12:00,
2013-06-13 11:17:00,72.5,60.4,30.03,NW,315,9.0,9.0,66,0.00,,,0.00,meteohub,2013-06-13 18:17:00,
2013-06-13 11:22:00,72.5,61.0,30.03,West,270,7.0,9.0,67,0.00,,,0.00,meteohub,2013-06-13 18:22:00,
2013-06-13 11:27:00,72.7,60.6,30.03,NW,315,5.0,10.0,66,0.00,,,0.00,meteohub,2013-06-13 18:27:00,
2013-06-13 11:32:00,74.7,60.3,30.03,West,270,11.0,11.0,61,0.00,,,0.00,meteohub,2013-06-13 18:32:00,
2013-06-13 11:37:00,73.9,60.6,30.03,NW,315,12.0,12.0,63,0.00,,,0.00,meteohub,2013-06-13 18:37:00,
2013-06-13 11:42:00,74.1,60.8,30.03,NW,315,8.0,12.0,63,0.00,,,0.00,meteohub,2013-06-13 18:42:00,
2013-06-13 11:47:00,73.8,60.4,30.03,West,270,8.0,12.0,63,0.00,,,0.00,meteohub,2013-06-13 18:47:00,
2013-06-13 11:52:00,74.5,60.6,30.03,NW,315,8.0,12.0,62,0.00,,,0.00,meteohub,2013-06-13 18:52:00,
2013-06-13 11:57:00,73.8,60.4,30.03,SW,225,4.0,10.0,63,0.00,,,0.00,meteohub,2013-06-13 18:57:00,
2013-06-13 12:02:00,75.4,60.4,30.02,NW,315,6.0,10.0,60,0.00,,,0.00,meteohub,2013-06-13 19:02:00,
2013-06-13 12:07:00,74.8,61.0,30.02,WNW,293,5.0,10.0,62,0.00,,,0.00,meteohub,2013-06-13 19:07:00,
2013-06-13 12:12:00,75.9,60.6,30.02,North,0,5.0,10.0,59,0.00,,,0.00,meteohub,2013-06-13 19:12:00,
2013-06-13 12:17:00,75.9,60.1,30.02,West,270,8.0,9.0,58,0.00,,,0.00,meteohub,2013-06-13 19:17:00,
2013-06-13 12:22:00,76.3,61.0,30.02,West,270,9.0,9.0,59,0.00,,,0.00,meteohub,2013-06-13 19:22:00,
2013-06-13 12:27:00,75.0,60.3,30.02,West,270,11.0,11.0,60,0.00,,,0.00,meteohub,2013-06-13 19:27:00,
2013-06-13 12:32:00,73.9,60.6,30.02,North,0,5.0,11.0,63,0.00,,,0.00,meteohub,2013-06-13 19:32:00,
2013-06-13 12:37:00,74.5,60.1,30.01,WNW,293,8.0,11.0,61,0.00,,,0.00,meteohub,2013-06-13 19:37:00,
2013-06-13 12:42:00,74.3,60.4,30.01,NW,315,6.0,11.0,62,0.00,,,0.00,meteohub,2013-06-13 19:42:00,
2013-06-13 12:47:00,73.8,60.8,30.01,NW,315,4.0,11.0,64,0.00,,,0.00,meteohub,2013-06-13 19:47:00,
2013-06-13 12:52:00,73.9,60.6,30.01,NW,315,11.0,13.0,63,0.00,,,0.00,meteohub,2013-06-13 19:52:00,
2013-06-13 12:57:00,74.3,59.9,30.01,SW,225,10.0,13.0,61,0.00,,,0.00,meteohub,2013-06-13 19:57:00,
2013-06-13 13:02:00,74.7,60.3,30.01,NW,315,13.0,13.0,61,0.00,,,0.00,meteohub,2013-06-13 20:02:00,
2013-06-13 13:07:00,74.5,60.6,30.01,SW,225,10.0,13.0,62,0.00,,,0.00,meteohub,2013-06-13 20:07:00,
2013-06-13 13:12:00,74.8,61.3,30.01,West,270,11.0,13.0,63,0.00,,,0.00,meteohub,2013-06-13 20:12:00,
2013-06-13 13:17:00,74.5,60.6,30.01,NW,315,11.0,13.0,62,0.00,,,0.00,meteohub,2013-06-13 20:17:00,
2013-06-13 13:22:00,74.1,60.8,30.01,North,0,10.0,13.0,63,0.00,,,0.00,meteohub,2013-06-13 20:22:00,
2013-06-13 13:27:00,75.0,61.2,30.01,NW,315,10.0,13.0,62,0.00,,,0.00,meteohub,2013-06-13 20:27:00,
2013-06-13 13:32:00,75.0,61.2,30.01,NW,315,7.0,12.0,62,0.00,,,0.00,meteohub,2013-06-13 20:32:00,
2013-06-13 13:37:00,75.0,60.6,30.01,West,270,9.0,12.0,61,0.00,,,0.00,meteohub,2013-06-13 20:37:00,
2013-06-13 13:42:00,74.1,61.2,30.00,North,0,6.0,11.0,64,0.00,,,0.00,meteohub,2013-06-13 20:42:00,
2013-06-13 13:47:00,74.8,61.3,30.00,NW,315,14.0,14.0,63,0.00,,,0.00,meteohub,2013-06-13 20:47:00,
2013-06-13 13:52:00,74.7,62.1,30.00,West,270,8.0,14.0,65,0.00,,,0.00,meteohub,2013-06-13 20:52:00,
2013-06-13 13:57:00,75.2,61.3,29.99,NW,315,8.0,14.0,62,0.00,,,0.00,meteohub,2013-06-13 20:57:00,
2013-06-13 14:02:00,74.7,61.2,29.99,West,270,6.0,14.0,63,0.00,,,0.00,meteohub,2013-06-13 21:02:00,
2013-06-13 14:07:00,74.1,61.5,29.99,West,270,11.0,11.0,65,0.00,,,0.00,meteohub,2013-06-13 21:07:00,
2013-06-13 14:12:00,74.5,61.5,29.99,NW,315,4.0,11.0,64,0.00,,,0.00,meteohub,2013-06-13 21:12:00,
2013-06-13 14:17:00,74.8,61.3,29.99,WNW,293,6.0,11.0,63,0.00,,,0.00,meteohub,2013-06-13 21:17:00,
2013-06-13 14:22:00,75.4,61.5,29.99,West,270,9.0,11.0,62,0.00,,,0.00,meteohub,2013-06-13 21:22:00,
2013-06-13 14:27:00,74.7,61.7,29.99,NW,315,11.0,12.0,64,0.00,,,0.00,meteohub,2013-06-13 21:27:00,
2013-06-13 14:32:00,74.5,62.4,29.98,West,270,8.0,12.0,66,0.00,,,0.00,meteohub,2013-06-13 21:32:00,
2013-06-13 14:37:00,75.2,61.7,29.98,West,270,8.0,12.0,63,0.00,,,0.00,meteohub,2013-06-13 21:37:00,
2013-06-13 14:42:00,74.1,62.1,29.98,NW,315,9.0,13.0,66,0.00,,,0.00,meteohub,2013-06-13 21:42:00,
2013-06-13 14:47:00,73.8,61.7,29.98,NW,315,11.0,13.0,66,0.00,,,0.00,meteohub,2013-06-13 21:47:00,
2013-06-13 14:52:00,74.3,62.2,29.98,WNW,293,8.0,15.0,66,0.00,,,0.00,meteohub,2013-06-13 21:52:00,
2013-06-13 14:57:00,74.1,61.5,29.98,NW,315,9.0,15.0,65,0.00,,,0.00,meteohub,2013-06-13 21:57:00,
2013-06-13 15:02:00,74.1,61.5,29.97,West,270,6.0,15.0,65,0.00,,,0.00,meteohub,2013-06-13 22:02:00,
2013-06-13 15:07:00,73.9,61.3,29.97,WNW,293,10.0,13.0,65,0.00,,,0.00,meteohub,2013-06-13 22:07:00,
2013-06-13 15:12:00,74.1,61.5,29.97,NW,315,8.0,12.0,65,0.00,,,0.00,meteohub,2013-06-13 22:12:00,
2013-06-13 15:17:00,73.4,61.3,29.97,NW,315,10.0,12.0,66,0.00,,,0.00,meteohub,2013-06-13 22:17:00,
2013-06-13 15:22:00,73.6,61.5,29.97,WNW,293,13.0,13.0,66,0.00,,,0.00,meteohub,2013-06-13 22:22:00,
2013-06-13 15:27:00,73.2,61.2,29.97,NW,315,11.0,13.0,66,0.00,,,0.00,meteohub,2013-06-13 22:27:00,
2013-06-13 15:32:00,72.7,61.2,29.97,West,270,10.0,13.0,67,0.00,,,0.00,meteohub,2013-06-13 22:32:00,
2013-06-13 15:37:00,72.9,61.3,29.96,WNW,293,10.0,14.0,67,0.00,,,0.00,meteohub,2013-06-13 22:37:00,
2013-06-13 15:42:00,73.9,61.0,29.96,NW,315,11.0,14.0,64,0.00,,,0.00,meteohub,2013-06-13 22:42:00,
2013-06-13 15:47:00,73.2,61.5,29.96,WNW,293,7.0,14.0,67,0.00,,,0.00,meteohub,2013-06-13 22:47:00,
2013-06-13 15:52:00,73.6,61.2,29.96,West,270,8.0,13.0,65,0.00,,,0.00,meteohub,2013-06-13 22:52:00,
2013-06-13 15:57:00,73.0,61.0,29.95,WSW,248,11.0,13.0,66,0.00,,,0.00,meteohub,2013-06-13 22:57:00,
2013-06-13 16:02:00,72.9,60.8,29.95,NW,315,8.0,13.0,66,0.00,,,0.00,meteohub,2013-06-13 23:02:00,
2013-06-13 16:07:00,72.9,61.3,29.94,WNW,293,9.0,15.0,67,0.00,,,0.00,meteohub,2013-06-13 23:07:00,
2013-06-13 16:12:00,73.2,60.8,29.94,West,270,11.0,15.0,65,0.00,,,0.00,meteohub,2013-06-13 23:12:00,
2013-06-13 16:17:00,73.2,61.2,29.94,NW,315,7.0,15.0,66,0.00,,,0.00,meteohub,2013-06-13 23:17:00,
2013-06-13 16:22:00,73.2,61.2,29.94,NW,315,9.0,11.0,66,0.00,,,0.00,meteohub,2013-06-13 23:22:00,
2013-06-13 16:27:00,72.3,60.8,29.94,West,270,12.0,13.0,67,0.00,,,0.00,meteohub,2013-06-13 23:27:00,
2013-06-13 16:32:00,72.3,61.2,29.94,West,270,8.0,13.0,68,0.00,,,0.00,meteohub,2013-06-13 23:32:00,
2013-06-13 16:37:00,72.7,60.6,29.94,West,270,11.0,13.0,66,0.00,,,0.00,meteohub,2013-06-13 23:37:00,
2013-06-13 16:42:00,72.3,61.2,29.94,NW,315,9.0,14.0,68,0.00,,,0.00,meteohub,2013-06-13 23:42:00,
2013-06-13 16:47:00,73.0,61.0,29.93,WNW,293,11.0,14.0,66,0.00,,,0.00,meteohub,2013-06-13 23:47:00,
2013-06-13 16:52:00,73.6,61.2,29.93,WNW,293,10.0,14.0,65,0.00,,,0.00,meteohub,2013-06-13 23:52:00,
2013-06-13 16:57:00,73.2,61.2,29.93,NW,315,10.0,11.0,66,0.00,,,0.00,meteohub,2013-06-13 23:57:00,
2013-06-13 17:02:00,73.4,61.0,29.93,NW,315,9.0,11.0,65,0.00,,,0.00,meteohub,2013-06-14 00:02:00,
2013-06-13 17:07:00,72.7,60.6,29.93,NE,45,10.0,11.0,66,0.00,,,0.00,meteohub,2013-06-14 00:07:00,
2013-06-13 17:12:00,73.2,61.2,29.93,NNE,23,6.0,15.0,66,0.00,,,0.00,meteohub,2013-06-14 00:12:00,
2013-06-13 17:17:00,73.4,60.4,29.92,NW,315,10.0,15.0,64,0.00,,,0.00,meteohub,2013-06-14 00:17:00,
2013-06-13 17:22:00,73.4,61.0,29.92,West,270,11.0,12.0,65,0.00,,,0.00,meteohub,2013-06-14 00:22:00,
2013-06-13 17:27:00,73.2,61.2,29.92,West,270,6.0,15.0,66,0.00,,,0.00,meteohub,2013-06-14 00:27:00,
2013-06-13 17:32:00,73.6,61.2,29.92,West,270,11.0,15.0,65,0.00,,,0.00,meteohub,2013-06-14 00:32:00,
2013-06-13 17:37:00,73.6,61.2,29.92,NW,315,11.0,15.0,65,0.00,,,0.00,meteohub,2013-06-14 00:37:00,
2013-06-13 17:42:00,73.2,60.8,29.91,West,270,11.0,12.0,65,0.00,,,0.00,meteohub,2013-06-14 00:42:00,
2013-06-13 17:47:00,72.5,61.3,29.91,West,270,9.0,12.0,68,0.00,,,0.00,meteohub,2013-06-14 00:47:00,
2013-06-13 17:52:00,72.9,61.7,29.91,WNW,293,9.0,12.0,68,0.00,,,0.00,meteohub,2013-06-14 00:52:00,
2013-06-13 17:57:00,72.3,61.5,29.91,NW,315,14.0,14.0,69,0.00,,,0.00,meteohub,2013-06-14 00:57:00,
2013-06-13 18:02:00,72.3,61.5,29.91,NW,315,8.0,14.0,69,0.00,,,0.00,meteohub,2013-06-14 01:02:00,
2013-06-13 18:07:00,72.7,61.5,29.91,WNW,293,8.0,14.0,68,0.00,,,0.00,meteohub,2013-06-14 01:07:00,
2013-06-13 18:12:00,72.9,61.3,29.91,West,270,10.0,14.0,67,0.00,,,0.00,meteohub,2013-06-14 01:12:00,
2013-06-13 18:17:00,72.7,61.5,29.91,NE,45,9.0,12.0,68,0.00,,,0.00,meteohub,2013-06-14 01:17:00,
2013-06-13 18:22:00,72.5,61.3,29.91,NW,315,8.0,11.0,68,0.00,,,0.00,meteohub,2013-06-14 01:22:00,
2013-06-13 18:27:00,72.7,61.9,29.91,North,0,4.0,11.0,69,0.00,,,0.00,meteohub,2013-06-14 01:27:00,
2013-06-13 18:32:00,73.4,61.3,29.91,NW,315,5.0,11.0,66,0.00,,,0.00,meteohub,2013-06-14 01:32:00,
2013-06-13 18:37:00,73.9,61.3,29.91,North,0,6.0,11.0,65,0.00,,,0.00,meteohub,2013-06-14 01:37:00,
2013-06-13 18:42:00,74.7,61.2,29.91,NE,45,5.0,8.0,63,0.00,,,0.00,meteohub,2013-06-14 01:42:00,
2013-06-13 18:47:00,74.5,60.6,29.91,North,0,7.0,8.0,62,0.00,,,0.00,meteohub,2013-06-14 01:47:00,
2013-06-13 18:52:00,73.9,60.6,29.91,North,0,5.0,8.0,63,0.00,,,0.00,meteohub,2013-06-14 01:52:00,
2013-06-13 18:57:00,73.6,60.6,29.91,North,0,8.0,8.0,64,0.00,,,0.00,meteohub,2013-06-14 01:57:00,
2013-06-13 19:02:00,73.2,60.8,29.91,North,0,5.0,8.0,65,0.00,,,0.00,meteohub,2013-06-14 02:02:00,
2013-06-13 19:07:00,72.9,60.8,29.92,North,0,3.0,8.0,66,0.00,,,0.00,meteohub,2013-06-14 02:07:00,
2013-06-13 19:12:00,72.7,60.6,29.91,NE,45,5.0,8.0,66,0.00,,,0.00,meteohub,2013-06-14 02:12:00,
2013-06-13 19:17:00,72.3,60.3,29.91,North,0,8.0,8.0,66,0.00,,,0.00,meteohub,2013-06-14 02:17:00,
2013-06-13 19:22:00,72.0,60.4,29.92,North,0,5.0,8.0,67,0.00,,,0.00,meteohub,2013-06-14 02:22:00,
2013-06-13 19:27:00,71.4,60.3,29.92,NW,315,4.0,8.0,68,0.00,,,0.00,meteohub,2013-06-14 02:27:00,
2013-06-13 19:32:00,71.2,60.6,29.92,North,0,5.0,8.0,69,0.00,,,0.00,meteohub,2013-06-14 02:32:00,
2013-06-13 19:37:00,70.7,60.1,29.92,North,0,3.0,8.0,69,0.00,,,0.00,meteohub,2013-06-14 02:37:00,
2013-06-13 19:42:00,70.2,60.3,29.92,North,0,4.0,7.0,71,0.00,,,0.00,meteohub,2013-06-14 02:42:00,
2013-06-13 19:47:00,69.4,60.1,29.92,North,0,4.0,7.0,72,0.00,,,0.00,meteohub,2013-06-14 02:47:00,
2013-06-13 19:52:00,68.5,60.3,29.92,NE,45,3.0,6.0,75,0.00,,,0.00,meteohub,2013-06-14 02:52:00,
2013-06-13 19:57:00,68.0,60.1,29.92,NNE,23,2.0,5.0,76,0.00,,,0.00,meteohub,2013-06-14 02:57:00,
2013-06-13 20:02:00,67.6,60.6,29.92,NE,45,4.0,5.0,78,0.00,,,0.00,meteohub,2013-06-14 03:02:00,
2013-06-13 20:07:00,67.1,60.4,29.93,NNE,23,4.0,5.0,79,0.00,,,0.00,meteohub,2013-06-14 03:07:00,
2013-06-13 20:12:00,66.6,60.3,29.92,North,0,4.0,6.0,80,0.00,,,0.00,meteohub,2013-06-14 03:12:00,
2013-06-13 20:17:00,66.2,60.3,29.92,North,0,3.0,6.0,81,0.00,,,0.00,meteohub,2013-06-14 03:17:00,
2013-06-13 20:22:00,65.8,60.3,29.92,NNE,23,4.0,6.0,82,0.00,,,0.00,meteohub,2013-06-14 03:22:00,
2013-06-13 20:26:00,65.7,60.1,29.93,NNE,23,2.0,4.0,82,0.00,,,0.00,meteohub,2013-06-14 03:26:00,
2013-06-13 20:31:00,65.3,60.1,29.93,NNE,23,2.0,4.0,83,0.00,,,0.00,meteohub,2013-06-14 03:31:00,
2013-06-13 20:36:00,64.9,59.9,29.93,NNE,23,3.0,4.0,84,0.00,,,0.00,meteohub,2013-06-14 03:36:00,
2013-06-13 20:42:00,64.8,60.1,29.93,North,0,2.0,4.0,85,0.00,,,0.00,meteohub,2013-06-14 03:42:00,
2013-06-13 20:47:00,64.6,59.9,29.92,North,0,2.0,5.0,85,0.00,,,0.00,meteohub,2013-06-14 03:47:00,
2013-06-13 20:52:00,64.4,60.1,29.93,North,0,3.0,5.0,86,0.00,,,0.00,meteohub,2013-06-14 03:52:00,
2013-06-13 20:57:00,64.2,60.3,29.93,North,0,3.0,5.0,87,0.00,,,0.00,meteohub,2013-06-14 03:57:00,
2013-06-13 21:01:00,64.0,60.1,29.93,North,0,2.0,3.0,87,0.00,,,0.00,meteohub,2013-06-14 04:01:00,
2013-06-13 21:02:00,63.9,59.9,29.93,North,0,0.0,3.0,87,0.00,,,0.00,meteohub,2013-06-14 04:02:00,
2013-06-13 21:07:00,63.7,60.1,29.93,North,0,3.0,3.0,88,0.00,,,0.00,meteohub,2013-06-14 04:07:00,
2013-06-13 21:12:00,63.5,59.9,29.94,North,0,2.0,3.0,88,0.00,,,0.00,meteohub,2013-06-14 04:12:00,
2013-06-13 21:17:00,63.3,60.1,29.94,North,0,2.0,3.0,89,0.00,,,0.00,meteohub,2013-06-14 04:17:00,
2013-06-13 21:22:00,63.3,60.3,29.94,North,0,0.0,3.0,90,0.00,,,0.00,meteohub,2013-06-14 04:22:00,
2013-06-13 21:27:00,63.1,60.1,29.94,NE,45,2.0,3.0,90,0.00,,,0.00,meteohub,2013-06-14 04:27:00,
2013-06-13 21:32:00,63.1,60.1,29.94,NE,45,2.0,4.0,90,0.00,,,0.00,meteohub,2013-06-14 04:32:00,
2013-06-13 21:37:00,62.8,60.1,29.94,NE,45,2.0,4.0,91,0.00,,,0.00,meteohub,2013-06-14 04:37:00,
2013-06-13 21:42:00,62.8,60.1,29.94,NE,45,0.0,4.0,91,0.00,,,0.00,meteohub,2013-06-14 04:42:00,
2013-06-13 21:47:00,62.4,59.7,29.94,NE,45,0.0,3.0,91,0.00,,,0.00,meteohub,2013-06-14 04:47:00,
2013-06-13 21:52:00,62.2,59.5,29.94,NE,45,0.0,3.0,91,0.00,,,0.00,meteohub,2013-06-14 04:52:00,
2013-06-13 21:57:00,62.1,59.7,29.94,NE,45,0.0,2.0,92,0.00,,,0.00,meteohub,2013-06-14 04:57:00,
2013-06-13 22:02:00,62.1,60.1,29.94,NE,45,2.0,2.0,93,0.00,,,0.00,meteohub,2013-06-14 05:02:00,
2013-06-13 22:07:00,62.1,60.1,29.94,NE,45,2.0,2.0,93,0.00,,,0.00,meteohub,2013-06-14 05:07:00,
2013-06-13 22:12:00,61.9,59.9,29.94,NE,45,2.0,2.0,93,0.00,,,0.00,meteohub,2013-06-14 05:12:00,
2013-06-13 22:17:00,61.9,59.9,29.94,NE,45,2.0,2.0,93,0.00,,,0.00,meteohub,2013-06-14 05:17:00,
2013-06-13 22:22:00,61.9,59.9,29.95,NE,45,2.0,2.0,93,0.00,,,0.00,meteohub,2013-06-14 05:22:00,
2013-06-13 22:27:00,61.7,59.7,29.94,NE,45,1.0,2.0,93,0.00,,,0.00,meteohub,2013-06-14 05:27:00,
2013-06-13 22:32:00,61.5,59.5,29.94,NE,45,0.0,2.0,93,0.00,,,0.00,meteohub,2013-06-14 05:32:00,
2013-06-13 22:37:00,61.5,59.7,29.94,NE,45,0.0,2.0,94,0.00,,,0.00,meteohub,2013-06-14 05:37:00,
2013-06-13 22:42:00,61.5,59.7,29.94,NE,45,0.0,1.0,94,0.00,,,0.00,meteohub,2013-06-14 05:42:00,
2013-06-13 22:47:00,61.5,59.7,29.94,NE,45,0.0,1.0,94,0.00,,,0.00,meteohub,2013-06-14 05:47:00,
2013-06-13 22:52:00,61.3,59.5,29.94,NE,45,0.0,0.0,94,0.00,,,0.00,meteohub,2013-06-14 05:52:00,
2013-06-13 22:57:00,61.2,59.4,29.95,NE,45,0.0,0.0,94,0.00,,,0.00,meteohub,2013-06-14 05:57:00,
2013-06-13 23:02:00,61.3,59.9,29.94,NE,45,0.0,0.0,95,0.00,,,0.00,meteohub,2013-06-14 06:02:00,
2013-06-13 23:07:00,61.3,59.9,29.94,NE,45,0.0,0.0,95,0.00,,,0.00,meteohub,2013-06-14 06:07:00,
2013-06-13 23:12:00,61.0,59.2,29.94,NE,45,0.0,0.0,94,0.00,,,0.00,meteohub,2013-06-14 06:12:00,
2013-06-13 23:17:00,60.4,58.6,29.94,NE,45,0.0,0.0,94,0.00,,,0.00,meteohub,2013-06-14 06:17:00,
2013-06-13 23:22:00,60.3,58.5,29.94,NE,45,0.0,0.0,94,0.00,,,0.00,meteohub,2013-06-14 06:22:00,
2013-06-13 23:27:00,60.1,58.6,29.94,NE,45,0.0,0.0,95,0.00,,,0.00,meteohub,2013-06-14 06:27:00,
2013-06-13 23:32:00,59.9,58.5,29.94,NE,45,0.0,0.0,95,0.00,,,0.00,meteohub,2013-06-14 06:32:00,
2013-06-13 23:37:00,60.3,59.2,29.94,NE,45,1.0,0.0,96,0.00,,,0.00,meteohub,2013-06-14 06:37:00,
2013-06-13 23:42:00,60.4,59.5,29.94,NE,45,0.0,1.0,97,0.00,,,0.00,meteohub,2013-06-14 06:42:00,
2013-06-13 23:47:00,60.4,59.5,29.94,NE,45,1.0,1.0,97,0.00,,,0.00,meteohub,2013-06-14 06:47:00,
2013-06-13 23:52:00,60.6,59.7,29.94,NE,45,2.0,2.0,97,0.00,,,0.00,meteohub,2013-06-14 06:52:00,
2013-06-13 23:57:00,60.8,59.9,29.94,NE,45,2.0,2.0,97,0.00,,,0.00,meteohub,2013-06-14 06:57:00,